Location: Unspecified
(0.0000°N, 0.0000°E)
Time: 14:25:48
(UTC+02:00)

NATO 3D Rocket - Visible Passes

Search period start: 24 July 2014 00:00
Search period end: 03 August 2014 00:00
Orbit: 670 x 2297 km, 21.5° (Epoch: 22 July)

Date Brightness Start Highest point End Pass type
(mag) Time Alt. Az. Time Alt. Az. Time Alt. Az.
24 Jul 6.3 06:06:28 24° SSW 06:06:37 24° SSW 06:14:12 10° SE visible
24 Jul 6.5 20:34:26 10° NNW 20:41:06 23° NNE 20:49:36 10° ENE visible
24 Jul 5.9 22:36:56 10° NW 22:47:09 48° NNE 22:49:00 46° NE visible
25 Jul 6.9 00:40:51 10° WNW 00:44:30 25° WNW 00:44:30 25° WNW visible
25 Jul 6.6 05:12:51 22° SSE 05:12:51 22° SSE 05:17:12 10° SE visible
25 Jul 6.4 07:08:24 11° SW 07:15:06 20° S 07:21:08 10° SE visible
25 Jul 6.1 21:40:08 10° NW 21:48:48 38° NNE 21:55:04 24° ENE visible
25 Jul 6.0 23:43:14 10° WNW 23:50:35 49° NW 23:50:35 49° NW visible
26 Jul 7.2 04:19:13 12° SE 04:19:13 12° SE 04:19:52 10° SE visible
26 Jul 6.4 06:14:45 22° SSW 06:16:37 23° S 06:24:05 10° SE visible
26 Jul 6.2 20:43:41 10° NW 20:50:44 28° NNE 21:00:02 10° ENE visible
26 Jul 5.5 22:46:03 10° NW 22:56:16 62° NNE 22:56:41 62° NNE visible
27 Jul 7.2 00:50:15 10° WNW 00:52:12 17° WNW 00:52:12 17° WNW visible
27 Jul 6.6 05:21:04 24° SSE 05:21:04 24° SSE 05:26:47 10° SE visible
27 Jul 6.4 07:17:02 10° SW 07:25:16 22° S 07:31:47 10° SE visible
27 Jul 5.6 21:49:16 10° NW 21:58:02 49° NNE 22:02:50 34° ENE visible
27 Jul 6.2 23:52:33 10° WNW 23:58:21 40° WNW 23:58:21 40° WNW visible
28 Jul 7.1 04:27:22 15° SE 04:27:22 15° SE 04:29:11 10° SE visible
28 Jul 6.5 06:22:54 20° SSW 06:26:43 24° S 06:34:24 10° SE visible
28 Jul 5.8 20:52:49 10° NW 21:00:08 37° NNE 21:09:02 13° E visible
28 Jul 5.3 22:55:19 10° WNW 23:04:33 77° NNW 23:04:33 77° NNW visible
29 Jul 7.4 00:59:57 10° W 01:00:04 10° W 01:00:04 10° W visible
29 Jul 6.6 05:29:11 25° S 05:29:11 25° S 05:36:47 10° SE visible
29 Jul 6.2 07:25:57 10° SW 07:35:21 27° S 07:42:33 10° ESE visible
29 Jul 5.2 21:58:29 10° NW 22:07:11 65° NNE 22:10:47 47° E visible
30 Jul 6.5 00:02:08 10° WNW 00:06:18 30° W 00:06:18 30° W visible
30 Jul 7.0 04:35:28 18° SSE 04:35:28 18° SSE 04:38:51 10° SE visible
30 Jul 6.4 06:31:00 19° SSW 06:36:49 27° S 06:45:01 10° ESE visible
30 Jul 5.3 21:01:59 10° NW 21:09:23 49° NNE 21:17:03 19° E visible
30 Jul 5.4 23:04:48 10° WNW 23:12:34 65° W 23:12:34 65° W visible
31 Jul 6.5 05:37:17 27° S 05:37:55 27° S 05:47:09 10° SE visible
31 Jul 6.1 07:34:37 10° SW 07:45:18 35° SSE 07:53:12 10° ESE visible
31 Jul 4.9 22:07:52 10° WNW 22:16:21 87° NNE 22:18:53 60° ESE visible
01 Aug 6.9 00:12:03 10° W 00:14:25 20° W 00:14:25 20° W visible
01 Aug 6.9 04:43:34 23° SSE 04:43:34 23° SSE 04:48:56 10° SE visible
01 Aug 6.3 06:39:05 19° SW 06:46:47 33° S 06:55:39 10° ESE visible
01 Aug 4.8 21:11:17 10° WNW 21:18:36 69° NNE 21:25:13 25° ESE visible
01 Aug 5.8 23:14:35 10° W 23:20:45 45° WSW 23:20:45 45° WSW visible
02 Aug 7.5 03:49:51 11° SE 03:49:51 11° SE 03:50:21 10° SE visible
02 Aug 6.4 05:45:23 29° S 05:47:55 31° S 05:57:43 10° ESE visible
02 Aug 5.8 07:43:11 10° SW 07:55:02 48° SSE 08:03:32 10° E visible
02 Aug 5.0 22:17:32 10° WNW 22:25:40 69° SSW 22:27:07 62° SSE visible
